[[{"header":{"parameterUnit":"m.s-1","parameterCategory":1,"la1":30.2991,"la2":30.254,"lo1":-89.0895,"lo2":-89.0444,"dy":0.0017,"dx":0.0017,"nx":28,"ny":28,"refTime":"2025-07-28T03:00:00:Z","depth":0,"parameterNumber":2,"parameterNumberName":"U-component_of_WINDS"},"data":[0,0,0,0,0,0,0,0,0,0,0,0,0,0,0,0,0,0,0,0,0,0,0,0,0,0,0,0,0,0,0,0,0,0,0,0,0,0,0,0,0,0,0,0,0,0,0,0,0,0,0,0,0,0,0,0,0,0,3.0919,3.0921,0,3.1087,3.1089,3.1091,3.1106,3.1105,3.1103,3.1101,3.1274,3.128,3.1286,0,0,0,0,0,0,0,0,0,0,0,0,0,3.0613,3.0619,3.0919,3.0921,3.0923,3.1086,3.1089,3.1091,3.1107,3.1105,3.1102,3.11,3.1272,3.1279,3.1287,0,0,0,0,0,0,0,0,0,0,0,0,0,3.076,3.0621,3.0919,3.0951,3.0955,3.1086,3.1089,3.1092,3.1107,3.1105,3.1102,3.1099,3.1269,3.1278,3.1288,3.1398,0,0,3.1316,3.132,0,0,0,0,0,0,0,0,3.0752,3.0771,3.0944,3.0949,3.0954,3.1073,3.1044,3.1194,3.1108,3.105,3.1101,3.1098,3.1209,3.1223,3.1261,3.1406,3.1414,3.1317,3.1323,3.1327,3.1329,0,0,0,0,0,0,0,3.0742,3.0764,3.0986,3.0947,3.0953,3.0957,3.0975,3.1073,3.1142,3.1054,3.1056,3.1076,3.1212,3.1252,3.1265,3.1416,3.1317,3.1325,3.1331,3.1335,3.1659,3.1662,0,0,0,0,0,0,3.0725,3.0756,3.098,3.0991,3.0844,3.0965,3.0985,3.1038,3.1141,3.1154,3.1078,3.1076,3.1237,3.1254,3.1271,3.1406,3.1327,3.1335,3.1341,3.1656,3.166,3.1663,0,0,0,0,0,0,3.0719,3.0745,3.0973,3.0874,3.0903,3.0973,3.1032,3.1042,3.1082,3.1159,3.1171,3.1106,3.1235,3.1258,3.1366,3.1412,3.134,3.1348,3.1653,3.1657,3.1661,3.1676,0,0,0,0,0,0,3.071,3.0743,3.0785,3.0874,3.0908,3.1066,3.1035,3.1047,3.1098,3.1097,3.1188,3.1201,3.1235,3.1352,3.1375,3.1423,3.1355,3.1649,3.1655,3.166,3.1672,3.1681,3.1688,0,0,0,0,0,3.0699,3.0784,3.0787,3.0814,3.0963,3.1068,3.1087,3.1125,3.1102,3.1145,3.1194,3.1198,3.1403,3.1363,3.1389,3.1441,3.1646,3.1653,3.166,3.1668,3.1679,3.1688,0,0,0,0,0,0,3.0699,3.0796,3.0801,3.0917,3.0984,3.1071,3.1126,3.1135,3.121,3.1206,3.125,3.127,3.1376,3.142,3.1373,3.1552,3.1522,3.1535,3.152,3.1531,3.1539,3.1525,3.1363,0,0,0,0,0,3.0712,3.0789,3.087,3.0964,3.0998,3.1056,3.1104,3.1126,3.1198,3.1226,3.1283,3.1353,3.1432,3.1484,3.1562,3.1679,3.1698,3.1727,3.1735,3.1742,3.1751,3.1815,3.1828,3.1685,3.1685,3.1685,0,0,3.074,3.0803,3.0849,3.0966,3.1021,3.1099,3.108,3.1164,3.1223,3.1239,3.1344,3.1388,3.1469,3.1581,3.1633,3.162,3.1795,3.175,3.1755,3.1761,3.1823,3.1836,3.1848,3.169,3.1689,3.1688,0,0,3.0832,3.0888,3.0972,3.1027,3.1109,3.1147,3.1167,3.1253,3.1282,3.1389,3.1402,3.1473,3.161,3.1666,3.1712,3.1824,3.183,3.1849,3.1891,3.1952,3.1963,3.1973,3.2012,3.2025,3.1859,3.1859,3.1859,0,3.0857,3.0976,3.1014,3.1097,3.1148,3.1166,3.1251,3.1302,3.1406,3.1441,3.1425,3.1596,3.1652,3.1777,3.1804,3.1842,3.1865,3.1838,3.1958,3.1969,3.1979,3.2016,3.203,3.186,3.186,3.186,3.186,0,3.1001,3.1084,3.1141,3.124,3.1298,3.1382,3.1432,3.1486,3.1504,3.1543,3.165,3.1718,3.1809,3.184,3.1859,3.1968,3.1957,3.1949,3.192,3.1993,3.2029,3.2043,3.1862,3.1862,3.1861,3.1861,0,0,3.1097,3.1215,3.1236,3.128,3.1372,3.1437,3.1521,3.161,3.1654,3.1725,3.1797,3.1912,3.1905,3.1958,3.1983,3.2037,3.2119,3.2023,3.2025,3.2037,3.2241,3.2245,3.2261,3.2124,3.2127,3.213,3.2234,0,3.1198,3.1348,3.1384,3.1513,3.1588,3.1606,3.168,3.1744,3.1783,3.1853,3.1897,3.1978,3.1963,3.1995,3.2049,3.2098,3.2161,3.2091,3.219,3.2193,3.2168,3.228,3.2285,3.238,3.2248,3.2251,3.2252,0,3.1335,3.1408,3.1543,3.1624,3.1658,3.1723,3.1806,3.1873,3.1946,3.1971,3.203,3.2049,3.2138,3.2105,3.2226,3.2178,3.2221,3.2251,3.2256,3.2265,3.2226,3.229,3.2411,3.2424,3.2275,3.2273,3.2272,0,3.1389,3.1521,3.1619,3.1657,3.1754,3.1799,3.1842,3.1913,3.1963,3.2036,3.2069,3.2152,3.2197,3.2261,3.2302,3.2275,3.242,3.2391,3.2442,3.2441,3.2471,3.2468,3.2598,3.2502,3.2502,3.2501,3.2501,0,3.1496,3.1578,3.1644,3.1704,3.1796,3.1837,3.1927,3.197,3.2033,3.2101,3.2123,3.2187,3.2238,3.2309,3.2343,3.2437,3.2458,3.248,3.2488,3.2477,3.2474,3.2505,3.2499,3.2505,3.2504,3.2503,3.2503,0,3.1571,3.1619,3.1726,3.1809,3.1832,3.1896,3.1967,3.2026,3.2066,3.2152,3.2175,3.2238,3.2322,3.237,3.2477,3.2499,3.2604,3.261,3.2579,3.2582,3.263,3.2624,3.2783,3.2806,3.2695,3.2696,3.2697,0,3.1636,3.1699,3.1788,3.1835,3.1879,3.1954,3.2006,3.2049,3.2101,3.2189,3.2237,3.2322,3.2393,3.2527,3.2582,3.2664,3.267,3.272,3.2683,3.267,3.2669,3.2664,3.267,3.2726,3.2727,3.2728,3.2729,0,3.1745,3.1765,3.1838,3.1918,3.1979,3.2045,3.211,3.2148,3.2202,3.2259,3.2346,3.24,3.2508,3.2593,3.2679,3.2723,3.2735,3.274,3.2756,3.2745,3.2724,3.2734,3.2595,3.2736,3.2735,3.2735,3.2734,3.2734,3.1816,3.1872,3.1943,3.2023,3.2077,3.2137,3.2196,3.2242,3.2315,3.2406,3.2427,3.2517,3.2588,3.2705,3.2751,3.2822,3.2813,3.2837,3.2843,3.2847,3.2848,3.2714,3.2838,3.2838,3.2838,3.2838,3.2838,0,3.1924,3.197,3.2044,3.2134,3.2196,3.2202,3.2274,3.2326,3.2405,3.247,3.2539,3.2637,3.2719,3.2781,3.2864,3.2909,3.2917,3.293,3.2926,3.2935,3.2852,3.2829,3.2922,3.2922,3.2922,3.2922,3.2922,3.2922,3.1987,3.2082,3.2111,3.2232,3.2279,3.2366,3.2407,3.2463,3.2515,3.2623,3.2691,3.273,3.2794,3.2882,3.2957,3.2973,3.3002,3.3014,3.303,3.2951,3.2942,3.2933,3.2911,3.302,3.302,3.3108,3.3108,3.3109]},{"header":{"parameterUnit":"m.s-1","parameterCategory":1,"la1":30.2991,"la2":30.254,"lo1":-89.0895,"lo2":-89.0444,"dy":0.0017,"dx":0.0017,"nx":28,"ny":28,"refTime":"2025-07-28T03:00:00:Z","depth":0,"parameterNumber":3,"parameterNumberName":"V-component_of_WINDS"},"data":[0,0,0,0,0,0,0,0,0,0,0,0,0,0,0,0,0,0,0,0,0,0,0,0,0,0,0,0,0,0,0,0,0,0,0,0,0,0,0,0,0,0,0,0,0,0,0,0,0,0,0,0,0,0,0,0,0,0,2.0518,2.0518,0,2.0521,2.0521,2.0521,2.0496,2.0495,2.0494,2.0494,2.0497,2.0498,2.0498,0,0,0,0,0,0,0,0,0,0,0,0,0,2.0488,2.0489,2.0518,2.0518,2.0518,2.0521,2.0521,2.0521,2.0496,2.0495,2.0494,2.0493,2.0497,2.0498,2.0498,0,0,0,0,0,0,0,0,0,0,0,0,0,2.0497,2.0489,2.0518,2.0506,2.0505,2.0521,2.0521,2.0521,2.0496,2.0495,2.0494,2.0493,2.0496,2.0497,2.0499,2.0527,0,0,2.0502,2.0503,0,0,0,0,0,0,0,0,2.0497,2.0498,2.0507,2.0507,2.0505,2.0507,2.0512,2.0523,2.0496,2.0499,2.0494,2.0492,2.0501,2.0502,2.0505,2.0527,2.0527,2.0502,2.0503,2.0503,2.0504,0,0,0,0,0,0,0,2.0496,2.0498,2.0519,2.0508,2.0506,2.05,2.05,2.0514,2.0506,2.0499,2.0497,2.0498,2.05,2.0504,2.0505,2.0527,2.0502,2.0503,2.0504,2.0504,2.0572,2.0573,0,0,0,0,0,0,2.0497,2.0498,2.0519,2.0519,2.0498,2.0501,2.0501,2.0508,2.0506,2.0505,2.0499,2.0497,2.0502,2.0503,2.0505,2.0537,2.0503,2.0504,2.0505,2.0571,2.0572,2.0574,0,0,0,0,0,0,2.0497,2.0499,2.0519,2.0508,2.051,2.0503,2.051,2.0508,2.0512,2.0506,2.0504,2.0504,2.0502,2.0503,2.0521,2.0537,2.0505,2.0506,2.057,2.0571,2.0573,2.0603,0,0,0,0,0,0,2.0496,2.0499,2.051,2.0508,2.0511,2.0536,2.0511,2.0509,2.0514,2.0511,2.051,2.0509,2.0501,2.052,2.0523,2.0538,2.0507,2.0568,2.057,2.0572,2.06,2.0605,2.0609,0,0,0,0,0,2.0495,2.0519,2.0511,2.0514,2.0525,2.0537,2.0538,2.0529,2.0515,2.0526,2.0522,2.0509,2.0535,2.0522,2.0525,2.0541,2.0567,2.057,2.0572,2.0598,2.0604,2.0609,0,0,0,0,0,0,2.0523,2.0518,2.051,2.0534,2.0536,2.0533,2.0546,2.0535,2.0541,2.0539,2.0526,2.0526,2.0546,2.0545,2.0531,2.0567,2.0549,2.0552,2.0567,2.0573,2.0577,2.0577,2.0508,0,0,0,0,0,2.0532,2.0543,2.0538,2.056,2.0562,2.0554,2.0559,2.0551,2.0553,2.0554,2.0551,2.0553,2.0561,2.0567,2.0575,2.06,2.0599,2.0612,2.0617,2.0621,2.0623,2.0635,2.0641,2.0582,2.0582,2.0582,0,0,2.0551,2.055,2.0558,2.0566,2.0566,2.0577,2.0555,2.0568,2.0575,2.0555,2.0572,2.0571,2.0572,2.0594,2.0603,2.0593,2.0639,2.0624,2.0627,2.0628,2.0639,2.0644,2.0649,2.0584,2.0583,2.0583,0,0,2.0591,2.0592,2.0609,2.061,2.0611,2.0606,2.061,2.0608,2.0606,2.0623,2.0607,2.0616,2.0632,2.0633,2.0635,2.0674,2.0662,2.0677,2.0701,2.0713,2.0717,2.0721,2.0734,2.0739,2.068,2.068,2.068,0,2.0614,2.063,2.0619,2.0633,2.0636,2.0619,2.0636,2.0637,2.0641,2.0644,2.0633,2.0651,2.065,2.0671,2.0681,2.0684,2.0688,2.0677,2.0718,2.0721,2.0725,2.0737,2.0742,2.0682,2.0682,2.0681,2.0681,0,2.0658,2.067,2.0684,2.0687,2.0692,2.0708,2.0699,2.0705,2.0697,2.0692,2.0709,2.0708,2.0714,2.0719,2.0711,2.0738,2.0732,2.072,2.07,2.0733,2.0744,2.0749,2.0684,2.0684,2.0683,2.0683,0,0,2.0716,2.0713,2.0718,2.0719,2.0718,2.0727,2.0741,2.0747,2.0752,2.0755,2.0766,2.0779,2.0767,2.077,2.0762,2.0773,2.0802,2.0759,2.0759,2.0766,2.0832,2.084,2.0846,2.0794,2.0795,2.0796,2.0831,0,2.0754,2.0778,2.0768,2.0793,2.0803,2.0785,2.0797,2.0798,2.0794,2.0801,2.0797,2.0806,2.079,2.0791,2.0801,2.0797,2.0815,2.0794,2.0804,2.0804,2.0803,2.0852,2.0862,2.0895,2.0836,2.0836,2.0837,0,2.0802,2.0806,2.0832,2.0828,2.0832,2.0843,2.0847,2.0855,2.0855,2.0851,2.0854,2.0843,2.0856,2.0837,2.0855,2.084,2.0844,2.0842,2.0843,2.0843,2.0822,2.0853,2.0905,2.091,2.0844,2.0843,2.0843,0,2.084,2.0853,2.0869,2.087,2.0867,2.0875,2.0874,2.0873,2.0877,2.0881,2.0883,2.0888,2.0891,2.0895,2.0886,2.0873,2.0904,2.0885,2.0901,2.0901,2.0908,2.0907,2.0961,2.0911,2.0911,2.0911,2.0911,0,2.0884,2.09,2.0886,2.0896,2.0913,2.0901,2.0919,2.0916,2.0915,2.0924,2.0909,2.0918,2.0905,2.0913,2.0906,2.092,2.0922,2.0919,2.0917,2.092,2.092,2.0921,2.0918,2.0912,2.0912,2.0912,2.0912,0,2.0929,2.0921,2.0938,2.0933,2.0932,2.0945,2.094,2.0949,2.0944,2.0955,2.0957,2.0949,2.0956,2.0948,2.0955,2.095,2.097,2.0965,2.097,2.0968,2.0984,2.0982,2.104,2.1046,2.0993,2.0994,2.0994,0,2.0957,2.0969,2.0965,2.097,2.0969,2.0977,2.0981,2.0969,2.0974,2.0974,2.0983,2.0989,2.0994,2.1007,2.1001,2.1006,2.1,2.102,2.1001,2.1003,2.0999,2.0999,2.0999,2.1024,2.1024,2.1025,2.1025,0,2.1007,2.1002,2.1007,2.1011,2.1016,2.1019,2.102,2.1025,2.1013,2.1019,2.1026,2.1029,2.1036,2.1042,2.1046,2.1044,2.1033,2.1031,2.1035,2.1038,2.104,2.1038,2.0979,2.103,2.103,2.1029,2.1029,2.1029,2.1043,2.1053,2.1051,2.1057,2.1057,2.1059,2.1067,2.1062,2.1068,2.1072,2.1065,2.1074,2.1073,2.1076,2.1076,2.1083,2.1074,2.108,2.1081,2.1083,2.1085,2.104,2.1084,2.1083,2.1083,2.1083,2.1083,0,2.1091,2.1089,2.1095,2.1098,2.1102,2.1091,2.1092,2.1097,2.1105,2.1105,2.1109,2.1117,2.1123,2.1117,2.1122,2.1128,2.1123,2.113,2.1129,2.1128,2.1093,2.1088,2.1134,2.1134,2.1134,2.1134,2.1134,2.1134,2.1117,2.1131,2.1126,2.114,2.1137,2.1146,2.1147,2.1148,2.1148,2.1157,2.1162,2.1158,2.1156,2.116,2.1165,2.1163,2.1165,2.1173,2.117,2.1136,2.1131,2.1126,2.1122,2.1174,2.1174,2.1205,2.1205,2.1205]}]]